Location: Champs
(48.8539°N, 2.6040°E)
Time: 04:57:10
(UTC+00:00)

CZ-2C R/B - Pass Details

Date: 26 October 2021
Orbit: 784 x 871 km, 98.2° (Epoch: 04 December)

Event Time Altitude Azimuth Distance (km) Brightness Sun altitude
Rises 05:47:48 0° 187° (S) 3,401 5.9 -7.1°
Reaches altitude 10° 05:50:18 10° 195° (SSW) 2,481 5.1 -6.7°
Maximum altitude 05:55:27 39° 264° (W) 1,273 3.2 -5.9°
Drops below altitude 10° 06:00:42 10° 333° (NNW) 2,528 4.8 -5.0°
Sets 06:03:17 0° 341° (NNW) 3,472 5.6 -4.6°
